Location: Mason
(37.5237°N, 89.2543°W)
Time: 16:38:21
(UTC+00:00)

Daily predictions for brighter satellites

Satellite Brightness Start Highest point End
(mag) Time Altitude Azimuth Time Altitude Azimuth Time Altitude Azimuth
Cosmos 1092 Rocket 4.0 12:03:32 10° NNW 12:09:36 63° W 12:15:41 10° S
Cosmos 2279 Rocket 4.2 12:07:07 10° S 12:13:19 79° E 12:19:36 10° N
CZ-4B DEB 4.2 12:07:50 10° N 12:13:25 79° WNW 12:18:57 10° SSW
Cosmos 1689 Rocket 2.9 12:11:55 10° SSW 12:14:29 29° W 12:17:05 10° NW
FALCON 9 DEB 2.8 12:12:43 10° SW 12:15:48 68° NW 12:18:53 10° NE
Cosmos 1825 Rocket 3.8 12:11:59 10° N 12:16:28 79° E 12:20:55 10° S
YAOGAN 6 3.3 12:15:04 10° N 12:18:26 34° WNW 12:21:47 10° SW
NOAA 6 4.0 12:14:51 10° N 12:20:00 66° WNW 12:25:08 10° SSW
COSMO-SKYMED 1 4.0 12:17:15 10° SW 12:20:10 18° W 12:23:06 10° NW
Cosmos 2084 Rocket 3.8 12:16:19 10° NNW 12:20:43 70° NE 12:25:15 10° SE
FALCON 9 DEB 2.8 12:18:01 10° SW 12:21:08 70° NW 12:24:16 10° NE
ERBS 2.9 12:18:44 10° SSW 12:21:58 57° SE 12:25:11 10° NE
Cosmos 1315 Rocket 2.8 12:21:01 10° SSW 12:24:50 55° W 12:28:42 10° N
ATLAS CENTAUR R/B 2.6 12:22:36 11° W 12:25:00 18° NW 12:27:32 10° N
SL-19 R/B 4.0 12:22:14 10° N 12:25:53 57° WNW 12:29:03 10° SSW
NOAA 12 4.1 12:20:55 10° NNE 12:26:14 85° WNW 12:31:32 10° SSW
H-2A R/B 4.3 12:29:13 10° NNW 12:31:29 16° WNW 12:33:45 10° WSW
AQUARIUS 4.1 12:27:16 10° N 12:31:47 78° WNW 12:36:15 10° SSW
Cosmos 1634 Rocket 4.3 12:26:22 10° SSW 12:32:10 44° WNW 12:38:03 10° N
GEOS 3 Rocket 3.9 12:31:38 10° SSE 12:36:50 55° WSW 12:42:08 10° NW
NOSS 3-2 (A) 4.1 12:34:34 10° WSW 12:39:34 32° NW 12:45:11 10° NNE
Cosmos 1953 Rocket 3.5 12:35:36 10° N 12:39:57 87° WSW 12:44:18 10° S
CZ-2C R/B 2.6 12:35:17 10° S 12:40:28 70° WSW 12:45:47 10° NNW
Cosmos 2369 Rocket 3.2 12:37:12 10° N 12:42:37 48° ENE 12:48:00 10° SE
Cosmos 1943 Rocket 2.3 12:36:58 10° NNW 12:42:40 86° ENE 12:48:20 10° SSE
Cosmos 2058 Rocket 3.2 23:34:03 10° N 23:38:32 60° E 23:42:59 10° SSE
EXPRESS MD2 4.4 23:32:06 10° NW 23:40:34 56° NNE 23:44:38 10° ESE
Cosmos 1726 Rocket 3.9 23:38:10 10° NNW 23:42:32 71° W 23:46:56 10° S
Cosmos 1844 3.8 23:37:43 10° SSW 23:43:22 88° ESE 23:49:07 10° NNE
Meteor 2-10 Rocket 3.5 23:38:06 10° N 23:43:29 72° E 23:48:38 10° SSE
Hubble Space Telescope 2.8 23:40:52 10° SW 23:44:08 23° S 23:47:24 10° SE
MOS 1 Rocket 3.6 23:42:45 10° NNE 23:46:46 38° E 23:50:48 10° SSE
Cosmos 1626 Rocket 3.9 23:42:48 10° SSE 23:46:55 43° E 23:51:06 10° NNE
CREW DRAGON DEMO-1 DEB 4.0 23:45:54 10° NNW 23:48:17 23° NNE 23:50:36 10° E
Cosmos 158 Rocket 4.3 23:45:53 10° N 23:51:05 48° ENE 23:56:16 10° SE
Cosmos 1844 Rocket 3.2 23:45:59 10° SSW 23:51:35 63° WNW 23:57:13 10° NNE
Cosmos 1092 Rocket 4.3 23:45:54 10° SSE 23:51:40 43° E 23:57:26 10° NNE
Meteor 2-13 Rocket 4.4 23:46:15 10° S 23:52:19 74° E 23:58:27 10° N
NOSS 2-1 (C) 2.8 23:52:45 10° SSW 23:56:14 84° ESE 23:59:34 10° NE
